#timestamp,LO_Frequency,Hit,StdDev 
1523584815.3,286046996.6,N
1523584835.2,286046997.2,N
1523584855.0,286046998.4,N
1523584855.9,286046998.4,N
1523584875.8,286046996.9,N
1523584895.6,286046999.4,N
1523584915.4,286047001.1,N
1523584935.3,286047000.8,N
1523584955.1,286046998.1,N
1523584975.9,286047002.3,N
1523584995.7,286047000.8,N
1523585015.5,286046998.4,N
1523585035.4,286047001.1,N
1523585055.2,286046998.8,N
1523585075.0,286046997.1,N
1523585076.0,286046997.1,N
1523585095.8,286046998.1,N
1523585115.6,286046996.9,N
1523585135.5,286046999.1,N
1523585155.3,286046996.8,N
1523585175.1,286046997.1,N
1523585195.9,286046999.4,N
1523585215.7,286046996.7,N
1523585235.6,286046996.9,N
1523585255.4,286046999.0,N
1523585275.2,286046998.4,N
1523585295.1,286047000.5,N
1523585296.0,286047000.5,N
1523585315.8,286047002.3,N
1523585335.7,286047004.0,N
1523585355.5,286047003.1,N
1523585375.3,286047001.4,N
1523585395.2,286047002.5,N
1523585415.0,286047000.4,N
1523585415.9,286047000.4,N
1523585435.8,286047002.6,N
1523585455.6,286047001.6,N
1523585475.5,286047001.6,N
1523585495.3,286047002.7,N
1523585515.2,286046999.8,N
1523585535.0,286047002.6,N
1523585535.9,286047002.6,N
1523585555.7,286047002.0,N
1523585575.6,286047000.5,N
1523585595.4,286047001.5,N
1523585615.3,286046999.7,N
1523585635.1,286047001.0,N
1523585636.0,286047001.0,N
1523585655.8,286046999.7,N
1523585675.7,286047000.9,N
1523585695.5,286047001.2,N
1523585715.3,286047001.1,N
1523585735.2,286046998.5,N
1523585755.0,286046999.7,N
1523585755.9,286046999.7,N
1523585775.8,286047001.7,N
1523585795.6,286047002.0,N
1523585815.4,286047002.0,N
1523585835.3,286047002.5,N
1523585855.1,286047001.6,N
1523585875.9,286047004.3,Y
1523585895.7,286047002.4,P
1523585915.5,286047002.2,P
1523585935.4,286047000.3,N
1523585955.2,286046998.6,N
1523585975.1,286047001.0,N
1523585976.0,286047001.0,N
1523585995.8,286046999.6,N
1523586015.6,286046997.3,N
1523586035.5,286046999.1,N
1523586055.3,286046999.5,N
1523586075.1,286046996.5,N
1523586095.9,286046999.5,N
1523586115.7,286046999.5,N
1523586135.6,286046999.0,N
1523586155.4,286046998.7,N
1523586175.2,286046998.7,N
1523586195.1,286047000.0,N
1523586196.0,286047000.0,N
1523586215.8,286047000.8,N
1523586235.6,286047000.5,N
1523586255.5,286046996.5,N
1523586275.3,286046999.1,N
1523586295.2,286047000.6,N
1523586315.9,286047000.0,N
1523586335.7,286047000.8,N
1523586355.6,286047002.2,N
1523586375.4,286047001.8,N
1523586395.2,286047004.3,N
1523586415.1,286047002.3,N
1523586416.0,286047002.3,N
1523586435.8,286047000.0,N
1523586455.7,286047002.8,N
1523586475.5,286047000.2,N
1523586495.4,286046998.4,N
1523586515.2,286046999.3,N
1523586535.0,286046995.0,N
1523586535.9,286046995.0,N
1523586555.8,286046995.4,N
1523586575.6,286046995.0,N
1523586595.4,286046997.5,N
1523586615.3,286046995.3,N
1523586635.1,286046997.8,N
1523586655.9,286046999.6,N
1523586675.7,286046997.7,N
1523586695.5,286046997.7,N
1523586715.4,286046997.1,N
1523586735.2,286046998.9,N
1523586755.0,286046998.3,N
1523586755.9,286046998.3,N
1523586775.8,286046998.8,N
1523586795.6,286047000.1,N
1523586815.5,286047001.2,N
1523586835.3,286047000.6,N
1523586855.1,286047000.8,N
1523586875.9,286046999.8,N
1523586895.7,286047002.1,N
1523586915.6,286047002.3,N
1523586935.4,286046999.9,N
1523586955.2,286047000.9,N
1523586975.1,286047000.3,N
1523586976.0,286047000.3,N
1523586995.8,286046999.9,N
1523587015.6,286047000.5,N
1523587035.5,286046998.7,N
1523587055.3,286046999.2,N
1523587075.2,286046997.1,N
1523587095.9,286046998.8,N
1523587115.7,286046996.8,N
1523587135.6,286046999.3,N
1523587155.4,286046999.6,N
1523587175.2,286046997.6,N
1523587195.1,286046997.6,N
1523587196.0,286046997.6,N
1523587215.8,286046997.0,N
1523587235.7,286046998.3,N
1523587255.5,286047002.7,N
1523587275.3,286047002.7,N
1523587295.2,286047002.5,N
1523587315.0,286047002.3,N
1523587315.9,286047002.3,N
1523587335.8,286046999.7,N
1523587355.6,286047002.8,N
1523587375.4,286047000.7,N
1523587395.3,286047001.1,N
1523587415.1,286047000.3,N
1523587435.8,286046998.2,N
1523587455.7,286046998.4,N
1523587475.5,286046998.3,N
1523587495.4,286047002.3,N
1523587515.2,286047000.6,N
1523587535.0,286047000.9,N
1523587535.9,286047000.9,N
1523587555.8,286047000.6,N
1523587575.6,286046998.2,N
1523587595.4,286047001.2,N
1523587615.3,286046998.5,N
1523587635.1,286047002.7,N
1523587655.9,286047002.0,N
1523587675.7,286047002.5,N
1523587695.5,286047002.7,N
1523587715.4,286047002.7,N
1523587735.2,286046999.9,N
1523587755.0,286047002.4,N
1523587756.0,286047002.4,N
1523587775.8,286047002.1,N
1523587795.6,286047001.9,N
1523587815.5,286047004.0,N
1523587835.3,286047004.1,N
1523587855.1,286047003.9,N
1523587875.9,286047001.5,N
1523587895.7,286047002.4,N
1523587915.6,286047001.9,N
1523587935.4,286046999.9,N
1523587955.2,286047002.8,N
1523587975.1,286046999.9,N
1523587976.0,286046999.9,N
1523587995.8,286046999.8,N
1523588015.6,286047000.6,N
1523588035.5,286047000.8,N
1523588055.3,286047001.2,N
1523588075.2,286046998.2,N
1523588095.9,286046998.5,N
1523588115.7,286047000.6,N
1523588135.6,286047002.3,N
1523588155.4,286047000.1,N
1523588175.2,286047000.2,N
1523588195.1,286047000.6,N
1523588196.0,286047000.6,N
1523588215.8,286047001.1,N
1523588235.7,286046998.2,N
1523588255.5,286046998.8,N
1523588275.3,286046998.7,N
1523588295.2,286046996.8,N
1523588315.0,286046999.6,N
1523588315.9,286046999.6,N
1523588335.8,286046998.7,N
1523588355.6,286046999.2,N
1523588375.4,286046997.2,N
1523588395.3,286046999.1,N
